Tracking 25701 objects as of 4-Jul-2022
HD Live streaming from Space Station
objects crossing your sky now

FENGYUN 1C DEB

Track FENGYUN 1C DEB now!
10-day predictions


NORAD ID: 31844
Int'l Code: 1999-025CJJ
Perigee: 775.2 km
Apogee: 941.6 km
Inclination: 100.3 °
Period: 102.0 minutes
Semi major axis: 7229 km
RCS: 0.0099 m2 (small)
Launch date: May 10, 1999
Source: People's Republic of China (PRC)
Launch site: Taiyaun Space Center, China (TSC)

Note: This is SATELLITE DEBRIS
aabbcc
Your satellite tracking list
Your tracking list is empty




NASA's NSSDC Master Catalog

Two Line Element Set (TLE):
1 31844U 99025CJJ 22184.12599171  .00000684  00000-0  37712-3 0  9998
2 31844 100.2915 324.1953 0115060 167.9604 192.4355 14.12372930775250
Source of the keplerian elements: AFSPC